Content
SEND FEEDBACK

Daily
Averages
Monthly
Summary
United States of America

ANN ARBOR, MICHIGAN


Home > North America > United States > Michigan
Elevation: 759 feet     Latitude: 42 17N     Longitude: 083 43W

WEATHER
 
SELECT A DAY
Number of Records: 203,193;   Date Range: 1/1/95 - 7/23/14
 
SHARE

PRINT THIS DATA

[ ← Previous Day ]
WEATHER ALMANAC - MARCH 2, 2013
[ Next Day → ]
[ °C ]   °F
Weather ElementAverageHighLow
Temperature24.9 °F26.1 °F (12:53 pm)23 °F (10:53 pm)
Dewpoint17.6 °F19 °F (5:53 am)16 °F (6:53 pm)
Humidity74 %81 % (7:53 am)69 % (4:53 pm)
Barometer30.08 in30.10 in (1:53 am)30.07 in (4:53 am)
Wind Speed8.1 mph10.4 mph (1:53 pm)
Weather ElementAverage
Visibility9 mi
Wind DirectionNNW (341 °)

Weather ElementTotal
Precipitation---
Heating Degree Days40.5 (Base 65)
Averaged from 21 records on March 2, 2013
WEATHER CONDITIONS BREAKOUT
WIND DIRECTION BREAKOUT
WEATHER BY HOUR - MARCH 2, 2013
[ °C ]   °F
Local TimeTemperatureDewpointHumidityBarometerVisibilityWind DirectionWind SpeedGust SpeedPrecipitationEventsConditions
1:53 AM25.0 °F18.0 °F75 %30.10 in10.0 miNorth (350°)8.1 mphOvercast
2:53 AM25.0 °F18.0 °F75 %30.09 in10.0 miNorth (350°)8.1 mphOvercast
3:53 AM25.0 °F18.0 °F75 %30.08 in10.0 miNNW (340°)8.1 mphOvercast
4:53 AM25.0 °F18.0 °F75 %30.07 in10.0 miNorth (350°)8.1 mphOvercast
5:53 AM25.0 °F19.0 °F78 %30.08 in10.0 miNNW (340°)9.2 mphOvercast
7:53 AM24.1 °F19.0 °F81 %30.09 in8.0 miNNW (340°)9.2 mph0.00 inSnowLight Snow
8:53 AM24.1 °F18.0 °F77 %30.10 in5.0 miNNW (330°)8.1 mph0.00 inSnowLight Snow
9:53 AM24.1 °F19.0 °F81 %30.09 in5.0 miNNW (330°)8.1 mph0.00 inSnowLight Snow
10:53 AM25.0 °F19.0 °F78 %30.09 in5.0 miNorth (350°)9.2 mph0.00 inSnowLight Snow
11:53 AM25.0 °F18.0 °F75 %30.09 in8.0 miNorth (350°)5.8 mph0.00 inSnowLight Snow
12:53 PM26.1 °F18.0 °F71 %30.08 in9.0 miNorth (360°)5.8 mph0.00 inSnowLight Snow
1:53 PM26.1 °F18.0 °F71 %30.07 in9.0 miNorth (360°)10.4 mph0.00 inSnowLight Snow
2:53 PM26.1 °F18.0 °F71 %30.07 in9.0 miNorth (360°)9.2 mph0.00 inSnowLight Snow
3:53 PM26.1 °F18.0 °F71 %30.07 in10.0 miNorth (350°)9.2 mph0.00 inOvercast
4:53 PM26.1 °F17.1 °F69 %30.07 in10.0 miNorth (350°)9.2 mph0.00 inOvercast
5:53 PM25.0 °F17.1 °F72 %30.09 in10.0 miNNW (330°)9.2 mphOvercast
6:53 PM25.0 °F16.0 °F69 %30.10 in10.0 miNorth (350°)10.4 mphOvercast
8:53 PM24.1 °F16.0 °F71 %30.09 in10.0 miNNW (340°)5.8 mphOvercast
9:53 PM24.1 °F16.0 °F71 %30.09 in10.0 miNW (320°)5.8 mphOvercast
10:53 PM23.0 °F16.0 °F74 %30.09 in10.0 miNW (310°)5.8 mphOvercast
11:53 PM23.0 °F16.0 °F74 %30.08 in10.0 miWNW (300°)6.9 mphOvercast
Hourly data recorded from KARB, located miles away from Ann Arbor, Michigan







STORIES FROM OUR PARTNERS